This is the latest recevied weather packets stored in our database for station/object EA1GGY-1. If no packets are shown the sender has not sent any weather packets the latest 10 day(s).
| Time | Temp. | Humidity | Pressure | Rain* | Wind** | Luminosity | Snow |
|---|---|---|---|---|---|---|---|
| 1778118491 | 8.89° C | 71% | 1006.9 hPa | - | - | - | - |
| 1778117890 | 8.89° C | 72% | 1006.9 hPa | - | - | - | - |
| 1778117289 | 8.89° C | 71% | 1006.9 hPa | - | - | - | - |
| 1778116688 | 8.33° C | 75% | 1007.1 hPa | - | - | - | - |
| 1778116087 | 7.78° C | 77% | 1007.2 hPa | - | - | - | - |
| 1778115487 | 7.78° C | 76% | 1007.3 hPa | - | - | - | - |
| 1778114886 | 7.78° C | 76% | 1007.3 hPa | - | - | - | - |
| 1778114285 | 7.22° C | 77% | 1007.4 hPa | - | - | - | - |
| 1778113684 | 7.22° C | 77% | 1007.4 hPa | - | - | - | - |
| 1778113083 | 7.78° C | 76% | 1007.4 hPa | - | - | - | - |
| 1778112484 | 8.89° C | 78% | 1007.4 hPa | - | - | - | - |
| 1778111412 | 7.78° C | 73% | 1007.4 hPa | - | - | - | - |
| 1778110811 | 7.78° C | 74% | 1007.5 hPa | - | - | - | - |
| 1778110210 | 8.33° C | 73% | 1007.6 hPa | - | - | - | - |
| 1778109609 | 8.33° C | 73% | 1007.5 hPa | - | - | - | - |
| 1778109009 | 8.33° C | 73% | 1007.5 hPa | - | - | - | - |
| 1778108408 | 8.33° C | 74% | 1007.5 hPa | - | - | - | - |
| 1778107807 | 8.33° C | 73% | 1007.6 hPa | - | - | - | - |
| 1778107207 | 8.33° C | 75% | 1007.6 hPa | - | - | - | - |
| 1778106605 | 8.33° C | 75% | 1007.8 hPa | - | - | - | - |
| 1778106005 | 8.89° C | 74% | 1007.7 hPa | - | - | - | - |
| 1778105404 | 8.89° C | 73% | 1007.8 hPa | - | - | - | - |
| 1778104802 | 7.78° C | 75% | 1007.9 hPa | - | - | - | - |
| 1778104202 | 8.33° C | 75% | 1008 hPa | - | - | - | - |
| 1778103601 | 8.33° C | 74% | 1008 hPa | - | - | - | - |
* Rain since midnight (hover to see other rain measurements)
** Current wind speed in m/s (hover to see current wind gust speed)